Location: Niagara
(43.2500°N, 79.0670°W)
Time: 15:19:58
(UTC-05:00)

Vanguard 2 - All Passes

Search period start: 18 February 2018 00:00
Search period end: 28 February 2018 00:00
Orbit: 553 x 2939 km, 32.9° (Epoch: 18 February)

Date Brightness Start Highest point End Pass type
(mag) Time Alt. Az. Time Alt. Az. Time Alt. Az.
18 Feb - 17:18:10 10° SSW 17:26:10 23° SSE 17:31:51 10° ESE daylight
18 Feb - 19:27:38 10° WSW 19:34:51 32° S 19:39:42 10° ESE visible
18 Feb - 21:38:06 10° WSW 21:42:40 23° SSW 21:46:12 10° SE visible
19 Feb - 15:28:28 10° S 15:34:48 15° SSE 15:39:58 10° ESE daylight
19 Feb - 17:35:14 10° SW 17:44:11 29° SSE 17:50:12 10° ESE daylight
19 Feb - 19:45:30 10° WSW 19:52:46 33° S 19:57:37 10° ESE visible
19 Feb - 21:56:22 10° WSW 22:00:24 19° SSW 22:03:38 10° SSE visible
20 Feb - 15:44:02 10° SSW 15:52:49 21° SSE 15:59:24 10° ESE daylight
20 Feb - 17:52:39 10° SW 18:02:10 33° S 18:08:22 10° ESE daylight
20 Feb - 20:03:30 10° WSW 20:10:39 33° S 20:15:26 10° SE visible
20 Feb - 22:14:56 10° WSW 22:18:04 15° SSW 22:20:44 10° S visible
21 Feb - 13:58:16 10° SSE 14:00:59 11° SE 14:03:32 10° SE daylight
21 Feb - 16:00:28 10° SSW 16:10:50 26° SSE 16:18:09 10° ESE daylight
21 Feb - 18:10:18 10° WSW 18:20:09 37° S 18:26:23 10° ESE visible
21 Feb - 20:21:35 10° WSW 20:28:29 31° SSW 20:33:09 10° SE visible
21 Feb - 22:34:20 10° SW 22:35:40 11° SSW 22:36:55 10° SSW visible
22 Feb - 14:11:01 10° S 14:18:56 16° SSE 14:25:32 10° ESE daylight
22 Feb - 16:17:25 10° SW 16:28:50 32° SSE 16:36:32 10° ESE daylight
22 Feb - 18:28:09 10° WSW 18:38:06 40° S 18:44:20 10° ESE visible
22 Feb - 20:39:47 10° WSW 20:46:16 28° SSW 20:50:44 10° SE visible
23 Feb - 14:26:23 10° SSW 14:36:54 22° SSE 14:45:04 10° ESE daylight
23 Feb - 16:34:44 10° SW 16:46:51 37° SSE 16:54:44 10° ESE daylight
23 Feb - 18:46:08 10° WSW 18:56:02 41° S 19:02:12 10° ESE visible
23 Feb - 20:58:08 10° WSW 21:03:56 23° SSW 21:08:09 10° SSE visible
24 Feb - 12:42:22 10° SSE 12:44:45 10° SE 12:47:02 10° SE daylight
24 Feb - 14:42:38 10° SSW 14:54:52 28° SSE 15:03:54 10° ESE daylight
24 Feb - 16:52:20 10° SW 17:04:51 42° S 17:12:48 10° ESE daylight
24 Feb - 19:04:12 10° WSW 19:13:55 40° SSW 19:20:00 10° ESE visible
24 Feb - 21:16:41 10° WSW 21:21:32 18° SSW 21:25:15 10° S visible
25 Feb - 12:54:04 10° S 13:02:36 16° SE 13:10:04 10° ESE daylight
25 Feb - 14:59:25 10° SW 15:12:51 34° SSE 15:22:22 10° E daylight
25 Feb - 17:10:07 10° WSW 17:22:50 45° S 17:30:47 10° ESE daylight
25 Feb - 19:22:23 10° WSW 19:31:44 37° SSW 19:37:41 10° SE visible
25 Feb - 21:35:45 10° WSW 21:39:02 14° SW 21:41:47 10° S visible
26 Feb - 13:09:04 10° S 13:20:27 22° SSE 13:29:56 10° ESE daylight
26 Feb - 15:16:36 10° SW 15:30:49 39° SSE 15:40:38 10° E daylight
26 Feb - 17:28:04 10° WSW 17:40:48 47° S 17:48:42 10° ESE daylight
26 Feb - 19:40:38 10° W 19:49:29 33° SSW 19:55:14 10° SE visible
27 Feb - 13:25:04 10° SSW 13:38:20 28° SSE 13:48:57 10° E daylight
27 Feb - 15:34:05 10° SW 15:48:50 45° SSE 15:58:45 10° E daylight
27 Feb - 17:46:07 10° WSW 17:58:45 47° S 18:06:31 10° ESE daylight
27 Feb - 19:59:02 10° W 20:07:07 28° SSW 20:12:36 10° SSE visible
